Wind_Speed
17 13 14 10 9 6 7 5 6 5 8 10 13 14 12 18 15 17 17 19 18 14 18 20 23 19 17 14 11 9 10 11 9 7 6 7 7 9 9 8 10 8 7 4
16 19 14 11 9 7 8 7 4 6 11 11 12 17 15 16 19 14 16 21 21 20 23 26 26 24 21 17 14 13 12 13 12 10 10 10 11 11 11 11 9 8 8 8
23 15 17 13 12 12 11 10 7 9 10 8 10 15 8 10 14 17 19 20 24 24 18 20 25 27 25 21 18 14 11 12 13 12 10 10 9 9 10 11 12 10 9 10
24 19 14 17 17 15 16 6 9 10 6 7 9 8 7 4 6 13 18 22 28 25 21 18 16 20 25 22 21 17 15 13 13 13 11 11 12 11 12 13 14 11 11 12
25 17 19 20 18 17 17 10 9 9 10 10 11 8 2 7 6 7 16 20 27 28 25 21 19 14 11 21 24 20 16 15 13 10 10 11 12 11 11 14 14 11 11 10
26 20 20 25 23 17 12 9 10 11 11 15 2 6 7 8 3 3 5 13 20 26 25 23 19 20 17 19 24 24 20 15 13 12 11 13 13 11 9 12 14 11 12 13
18 25 19 22 20 17 18 15 16 13 12 7 3 5 7 5 2 4 3 6 18 23 25 26 26 26 23 22 25 26 22 19 15 13 12 13 15 12 10 9 12 12 11 12
19 17 23 17 24 19 22 23 21 9 11 6 2 6 6 3 7 6 5 5 12 21 27 28 29 27 22 18 18 23 21 20 19 15 14 15 16 14 13 13 14 14 10 10
12 15 10 22 20 22 18 21 20 23 19 13 18 12 15 10 2 6 5 8 7 16 23 29 30 28 24 19 18 16 18 19 19 16 16 17 17 16 15 14 13 10 11 9
15 9 7 11 16 24 28 16 19 22 16 16 14 13 16 12 12 8 11 10 8 13 22 28 31 30 25 22 18 18 19 18 17 18 18 18 16 16 16 15 14 12 11 11
19 15 10 12 15 17 17 30 24 23 24 18 13 16 11 10 11 13 15 15 11 11 16 24 29 31 28 24 24 21 19 21 19 18 18 19 18 17 17 15 16 14 12 13
21 14 20 19 15 16 20 25 33 28 25 21 25 24 15 17 18 19 14 14 11 10 12 23 27 30 30 28 26 23 20 20 16 15 15 16 17 17 16 16 15 14 13 11
14 15 17 14 15 16 20 22 29 36 32 32 22 20 17 18 18 15 14 11 8 9 13 21 27 30 32 29 24 21 18 17 18 17 14 14 14 14 15 15 15 14 11 10
17 17 19 18 6 6 20 22 25 33 34 28 29 28 24 21 18 18 12 13 9 7 12 23 26 29 31 29 24 23 20 18 17 18 16 14 13 11 14 15 14 12 9 8
13 18 19 21 17 12 12 17 21 26 34 36 28 23 22 20 20 14 13 13 11 9 9 20 24 21 20 23 26 28 27 22 20 20 18 14 14 14 15 16 13 11 8 7
8 14 13 17 17 16 18 20 22 21 24 28 29 26 23 21 16 14 17 15 13 12 9 17 26 23 21 20 22 29 28 25 23 20 20 16 18 19 17 17 15 12 9 7
10 13 14 21 15 16 22 23 23 23 24 22 27 25 19 16 14 13 13 18 15 16 14 13 19 23 24 25 26 28 29 28 25 25 23 20 20 22 20 19 16 12 10 9
12 12 15 19 19 19 22 15 12 14 21 19 22 22 16 20 16 12 11 14 15 15 17 17 14 22 21 22 24 29 33 30 26 27 24 21 19 22 22 22 18 14 11 10
21 17 17 21 26 26 25 13 14 15 17 22 25 24 24 21 16 13 15 17 20 20 18 17 19 21 23 18 19 25 27 26 25 26 24 20 17 18 20 19 19 14 12 12
25 21 22 21 23 23 24 17 23 18 15 21 23 26 25 22 17 18 16 16 17 27 22 18 20 24 21 16 16 20 15 19 22 20 21 21 19 9 12 15 17 15 14 13
21 26 29 27 27 26 20 18 19 18 14 20 24 23 27 27 24 23 25 19 15 17 23 22 22 22 26 22 20 17 11 18 20 21 24 23 19 12 12 16 19 19 18 16
24 23 27 30 32 32 24 18 17 18 19 17 21 24 21 24 26 24 25 22 18 20 21 22 21 20 28 23 21 13 8 16 23 23 23 21 21 18 16 16 17 20 21 19
25 23 21 20 24 31 25 34 25 25 18 13 16 22 22 22 22 22 23 23 20 20 21 22 18 19 25 22 14 11 13 17 22 24 22 21 22 20 17 16 17 17 18 21
17 21 25 22 15 10 24 26 25 24 24 17 11 12 18 20 23 26 26 25 25 23 22 23 23 21 23 20 15 15 16 18 19 24 22 21 23 22 20 20 20 19 18 18
20 17 17 26 27 18 14 24 32 27 26 24 17 12 8 14 18 18 21 23 23 24 24 26 25 26 26 25 21 22 21 23 23 25 26 23 22 24 23 22 21 21 21 20
25 26 24 22 21 29 24 26 26 27 28 31 29 17 11 8 11 16 18 17 17 19 21 24 27 27 28 28 26 23 21 28 29 28 28 28 27 26 26 27 26 26 23 21
Wind_Direction
213 212 213 209 207 232 213 251 258 276 256 266 272 275 272 263 264 221 212 200 199 188 200 199 196 207 217 215 210 208 208 206 210 202 193 198 209 207 209 211 217 226 222 233
209 220 218 219 219 221 226 247 267 301 307 289 291 283 277 252 270 248 223 209 194 191 199 207 215 220 222 225 221 214 199 201 199 203 199 208 210 210 212 215 219 226 223 226
220 228 227 226 229 236 242 262 294 311 301 298 305 298 274 258 239 231 212 209 201 201 204 209 219 224 224 222 223 212 200 190 199 206 212 217 219 221 220 231 227 234 230 228
226 227 226 231 236 241 258 269 284 290 291 319 301 299 305 256 196 217 218 209 203 203 197 197 205 218 224 219 213 208 205 196 196 204 211 218 218 217 219 219 227 230 223 234
222 225 227 232 238 244 251 275 279 282 282 289 249 273 196 253 258 242 222 214 209 208 209 206 203 208 206 209 211 206 204 206 202 206 203 211 215 217 223 225 222 227 231 225
233 240 234 239 240 240 240 259 266 266 275 269 221 249 158 137 126 246 227 218 208 201 206 209 198 201 200 204 208 207 208 213 210 207 208 206 211 214 221 224 216 221 228 222
226 237 244 231 227 232 230 241 244 232 218 246 87 257 293 206 310 336 298 249 205 206 206 208 200 201 202 213 212 213 210 211 216 213 212 210 211 202 202 205 201 215 216 240
217 222 223 225 218 224 225 227 235 232 254 235 195 249 152 208 311 324 24 231 232 216 210 209 207 208 214 212 213 217 215 211 217 214 205 207 210 204 198 201 203 217 217 248
209 238 233 220 221 218 212 225 229 268 267 266 264 258 276 279 318 304 327 308 318 245 225 213 210 212 214 212 216 217 214 210 216 215 206 207 211 210 202 197 205 213 219 205
223 247 210 211 215 226 229 230 228 232 257 261 259 247 273 273 288 302 308 316 289 314 225 217 212 212 207 205 210 218 213 203 204 203 205 207 208 210 212 204 203 211 216 216
214 222 208 215 223 221 218 227 234 249 239 246 254 254 266 282 290 302 299 299 292 302 239 212 215 212 204 203 208 213 204 184 187 188 197 203 204 210 217 216 209 212 220 229
213 228 236 233 236 226 235 229 226 228 234 240 264 272 268 284 288 300 297 285 275 300 232 210 209 211 206 204 206 212 208 206 180 178 188 194 199 206 216 221 220 220 223 233
200 218 234 233 229 240 232 235 233 233 241 248 254 261 265 279 288 290 290 292 267 281 227 205 204 212 215 211 211 213 212 206 195 183 190 201 200 202 206 220 222 225 231 243
209 227 230 243 238 262 217 231 233 233 236 242 248 264 272 276 279 286 275 272 273 283 232 206 209 214 217 216 219 223 214 212 206 200 202 211 211 203 206 216 225 226 231 246
214 236 242 248 262 263 243 239 231 234 238 243 254 257 266 273 284 271 269 276 252 258 229 209 207 204 201 214 216 218 217 216 214 207 207 210 213 211 215 216 224 230 239 241
222 234 244 249 252 251 251 246 244 239 242 244 249 261 263 267 280 273 267 274 257 237 229 202 206 210 207 210 212 217 221 222 214 212 210 208 215 218 222 222 226 231 239 224
231 234 247 251 246 250 254 251 249 243 238 243 242 250 256 248 261 281 266 265 248 231 230 216 218 216 209 214 218 219 219 219 217 210 211 210 219 220 224 225 225 232 237 224
228 238 243 253 246 242 249 253 255 249 245 254 243 246 255 248 258 281 271 248 241 237 235 228 232 203 201 203 212 214 216 217 215 212 211 208 216 219 222 224 223 227 231 223
234 233 244 242 243 252 248 264 259 258 260 247 250 238 232 244 267 274 279 249 236 242 226 238 210 208 217 209 216 211 212 214 211 212 204 196 204 218 220 223 221 220 222 213
231 230 232 239 246 251 247 243 249 261 246 253 249 240 234 237 254 251 270 291 251 233 213 224 215 215 212 213 209 220 208 214 208 195 194 198 197 185 200 208 205 211 204 194
219 224 229 233 246 247 246 256 252 232 246 229 235 240 236 240 243 249 258 279 247 224 219 230 218 226 217 216 214 208 197 213 196 186 186 200 193 191 182 189 196 196 188 186
230 222 227 234 242 239 249 260 234 235 239 221 229 233 236 239 247 253 253 264 256 231 221 212 211 210 212 216 201 193 170 182 188 187 186 194 185 184 186 180 180 187 192 193
235 229 252 243 245 234 240 236 240 245 244 236 227 236 241 240 242 252 257 252 244 220 208 212 207 211 193 187 195 196 174 181 194 194 191 192 188 189 192 189 190 193 190 193
232 240 239 242 246 237 225 238 244 246 240 246 252 233 240 249 247 251 254 250 253 223 218 213 207 189 186 185 192 206 190 200 203 200 196 201 206 201 201 204 206 208 206 205
226 249 243 239 235 266 263 255 247 257 259 256 258 258 229 243 243 239 239 235 226 225 214 213 205 201 194 192 195 211 206 208 211 207 206 208 214 216 215 217 224 227 230 231
238 241 241 245 242 234 235 250 262 264 269 268 262 244 255 240 227 209 206 200 204 202 205 212 210 214 214 210 217 208 209 216 212 215 216 220 216 216 224 223 229 233 237 238
Height
3172 3176 3176 3177 3178 3178 3180 3180 3181 3182 3183 3182 3182 3182 3182 3180 3180 3183 3184 3185 3186 3188 3189 3192 3193 3195 3197 3199 3200 3200 3201 3202 3204 3206 3208 3209 3210 3211 3212 3212 3213 3216 3217 3218
3171 3173 3175 3176 3177 3178 3179 3178 3179 3180 3179 3179 3179 3177 3177 3177 3175 3178 3181 3182 3183 3185 3186 3187 3190 3192 3194 3197 3198 3199 3200 3201 3203 3205 3206 3208 3208 3210 3211 3212 3214 3214 3216 3216
3168 3171 3173 3174 3176 3177 3177 3176 3177 3179 3178 3175 3174 3171 3171 3171 3170 3173 3176 3179 3181 3181 3183 3185 3186 3189 3192 3194 3196 3197 3198 3199 3201 3202 3204 3206 3207 3208 3210 3211 3212 3213 3214 3216
3166 3168 3170 3172 3173 3175 3173 3174 3177 3177 3177 3173 3174 3170 3169 3168 3168 3169 3171 3173 3177 3178 3180 3182 3184 3186 3188 3192 3194 3196 3197 3198 3199 3201 3203 3205 3206 3207 3208 3210 3211 3213 3214 3215
3163 3164 3167 3169 3170 3172 3174 3173 3175 3175 3174 3173 3170 3171 3165 3166 3166 3166 3167 3169 3172 3175 3177 3179 3182 3185 3187 3189 3191 3194 3195 3196 3197 3199 3201 3202 3204 3204 3206 3208 3209 3211 3213 3213
3160 3160 3163 3166 3168 3170 3171 3173 3172 3172 3172 3168 3164 3169 3160 3165 3166 3167 3165 3166 3168 3170 3173 3176 3180 3182 3184 3186 3188 3190 3192 3194 3195 3197 3199 3200 3202 3203 3204 3206 3208 3209 3210 3212
3156 3156 3159 3160 3164 3167 3169 3170 3167 3165 3163 3160 3164 3167 3159 3164 3165 3166 3166 3165 3165 3167 3169 3172 3175 3177 3180 3181 3184 3187 3189 3191 3193 3195 3197 3199 3200 3201 3202 3204 3205 3207 3207 3209
3150 3151 3153 3155 3158 3162 3164 3165 3162 3160 3155 3153 3162 3161 3159 3162 3163 3164 3163 3164 3164 3164 3166 3168 3171 3174 3176 3179 3181 3184 3186 3189 3191 3193 3195 3197 3199 3200 3200 3203 3204 3206 3206 3206
3146 3147 3148 3150 3154 3159 3159 3161 3163 3159 3156 3159 3159 3158 3159 3160 3161 3161 3161 3162 3161 3161 3162 3164 3167 3171 3173 3176 3178 3181 3184 3186 3188 3191 3193 3195 3196 3198 3199 3200 3202 3203 3204 3205
3144 3145 3146 3147 3150 3153 3154 3159 3161 3160 3156 3153 3152 3154 3156 3157 3159 3159 3158 3159 3158 3157 3157 3160 3163 3167 3170 3173 3176 3179 3181 3183 3185 3187 3190 3192 3194 3196 3197 3198 3199 3201 3202 3204
3141 3143 3143 3145 3146 3147 3151 3152 3154 3153 3150 3148 3148 3148 3151 3153 3155 3155 3155 3155 3155 3153 3153 3156 3160 3163 3167 3170 3173 3176 3179 3180 3182 3184 3187 3189 3191 3193 3195 3196 3197 3198 3200 3202
3137 3138 3137 3138 3139 3141 3142 3144 3148 3148 3148 3149 3147 3146 3148 3150 3151 3151 3151 3151 3151 3150 3150 3153 3157 3160 3163 3166 3169 3172 3176 3178 3180 3182 3184 3187 3188 3190 3192 3194 3195 3195 3197 3199
3133 3134 3132 3134 3137 3137 3138 3139 3140 3141 3143 3139 3140 3143 3146 3147 3147 3147 3147 3147 3146 3146 3147 3150 3153 3156 3159 3163 3166 3169 3173 3176 3177 3179 3182 3184 3186 3188 3190 3191 3193 3193 3195 3197
3127 3129 3128 3124 3126 3127 3130 3133 3134 3135 3133 3136 3137 3140 3143 3143 3142 3142 3143 3142 3143 3143 3144 3147 3150 3153 3156 3160 3163 3165 3170 3173 3175 3177 3179 3182 3184 3186 3187 3189 3191 3192 3193 3194
3125 3125 3126 3125 3126 3126 3127 3127 3128 3130 3131 3131 3133 3135 3137 3138 3138 3138 3138 3137 3139 3140 3141 3143 3147 3150 3153 3156 3159 3162 3165 3168 3171 3174 3177 3180 3182 3184 3185 3187 3189 3190 3191 3193
3121 3123 3123 3123 3123 3123 3123 3123 3124 3125 3128 3129 3131 3132 3133 3133 3133 3133 3133 3134 3135 3137 3138 3140 3143 3146 3149 3152 3155 3158 3161 3165 3168 3172 3175 3179 3181 3182 3184 3185 3187 3189 3190 3191
3118 3120 3120 3118 3119 3120 3118 3118 3118 3120 3122 3125 3125 3128 3128 3129 3129 3129 3129 3129 3130 3133 3135 3137 3139 3142 3145 3148 3152 3155 3158 3162 3165 3169 3172 3176 3178 3180 3181 3183 3185 3187 3188 3189
3114 3116 3118 3116 3115 3111 3112 3112 3112 3114 3117 3118 3119 3121 3121 3124 3125 3125 3125 3125 3126 3128 3131 3133 3135 3138 3141 3144 3147 3151 3154 3158 3162 3166 3169 3173 3175 3177 3178 3180 3182 3185 3186 3187
3108 3112 3113 3112 3109 3108 3108 3109 3111 3112 3112 3111 3111 3113 3116 3118 3120 3121 3120 3120 3121 3121 3125 3128 3130 3134 3138 3140 3143 3146 3150 3153 3158 3161 3166 3169 3172 3173 3175 3176 3179 3182 3184 3185
3105 3106 3109 3109 3104 3099 3105 3103 3105 3106 3108 3106 3106 3107 3110 3112 3115 3117 3115 3115 3114 3114 3118 3122 3125 3129 3132 3135 3138 3141 3146 3149 3153 3158 3163 3166 3168 3170 3172 3174 3177 3180 3182 3183
3098 3099 3099 3103 3100 3100 3101 3098 3101 3104 3105 3098 3100 3101 3104 3106 3108 3109 3110 3110 3110 3111 3113 3117 3120 3123 3126 3131 3134 3138 3142 3144 3151 3155 3159 3163 3165 3168 3170 3172 3174 3177 3180 3182
3090 3092 3091 3096 3094 3093 3095 3097 3100 3094 3093 3094 3094 3096 3098 3100 3102 3103 3104 3106 3106 3107 3109 3112 3115 3118 3122 3126 3131 3135 3138 3143 3147 3152 3156 3160 3163 3166 3168 3170 3172 3174 3177 3179
3085 3087 3086 3088 3090 3087 3089 3089 3090 3090 3091 3090 3090 3091 3092 3094 3096 3097 3099 3100 3102 3104 3106 3109 3111 3113 3117 3122 3127 3132 3135 3139 3144 3148 3152 3156 3160 3163 3165 3168 3170 3171 3174 3176
3078 3080 3079 3084 3084 3081 3082 3081 3082 3084 3086 3086 3086 3085 3087 3088 3090 3092 3093 3094 3097 3099 3102 3105 3108 3111 3115 3119 3123 3128 3131 3137 3141 3145 3149 3153 3156 3159 3162 3164 3166 3168 3170 3173
3075 3070 3074 3077 3079 3080 3077 3075 3075 3077 3079 3080 3081 3082 3082 3084 3085 3087 3088 3089 3090 3093 3097 3101 3105 3109 3113 3116 3119 3125 3129 3133 3137 3141 3144 3148 3152 3155 3158 3161 3163 3164 3166 3169
3065 3066 3070 3073 3070 3070 3070 3068 3069 3070 3072 3073 3076 3078 3078 3079 3081 3082 3084 3084 3086 3088 3091 3095 3100 3105 3109 3112 3116 3119 3124 3127 3131 3135 3138 3142 3146 3150 3153 3156 3157 3159 3162 3164